Regional Weather Roundup
Issued by NWS

Home | Current Version | Previous Version | Text Only | Print | Product List | Glossary On
Versions: 1 2 3 4 5 6 7 8 9 10 11 12 13 14 15 16 17 18 19 20 21 22 23 24 25 26 27 28 29 30 31 32 33 34 35 36 37 38 39 40 41 42 43 44 45 46 47 48 49 50
000
ASUS44 KFWD 251115
RWRTX
NORTH TEXAS HOURLY WEATHER ROUNDUP
NATIONAL WEATHER SERVICE FORT WORTH TX
600 AM CDT TUE JUL 25 2017

NOTE: "FAIR" INDICATES FEW OR NO CLOUDS BELOW 12,000 FEET WITH NO
SIGNIFICANT WEATHER AND/OR OBSTRUCTIONS TO VISIBILITY.

TXZ118-119-251200-
DALLAS/FORT WORTH METROPLEX

CITY           SKY/WX    TMP DP  RH WIND       PRES   REMARKS
DFW AIRPORT    PTCLDY    79  73  82 S10       30.02R
DALLAS LOVE    PTCLDY    78  73  84 S7        30.04R
FTW MEACHAM    CLEAR     78  73  84 S9        30.03R
DAL-EXECUTIVE  CLEAR     76  73  91 SE5       30.04R
FTW-ALLIANCE   MOCLDY    77  74  90 S3        30.03R
FTW-NAS-JRB    PTCLDY    79  72  79 S6        30.04R
FTW-SPINKS     CLEAR     77  71  83 S6        30.06R
ARLINGTON      CLEAR     77  73  87 S7        30.04R
GRAND PRAIRIE  CLEAR     77  70  79 S5        30.05R
MESQUITE       CLEAR     74  73  96 S5        30.05R
LANCASTER      CLEAR     74  72  91 S3        30.06R
$$

TXZ091>094-102>105-117-120-121-131>134-251200-
NORTH CENTRAL TEXAS

CITY           SKY/WX    TMP DP  RH WIND       PRES   REMARKS
SHRMAN/DENISON CLEAR     76  73  91 SE5       30.06R
GAINESVILLE    CLEAR     74  72  95 E3        30.06R
BOWIE          CLEAR     74  74 100 CALM      30.05R
BRIDGEPORT     CLEAR     73  73 100 CALM      30.05R
DECATUR        CLEAR     76  73  88 SE5         N/A
DENTON         CLOUDY    78  76  93 S6        30.03R
MCKINNEY       CLEAR     76  76 100 SE6       30.05R
BONHAM         CLEAR     75  73  94 SE7       30.05R
GREENVILLE     PTCLDY    79  75  89 S5        30.07R
ROCKWALL       CLEAR     76  75  98 S8        30.06R
TERRELL        CLEAR     76  73  91 S7        30.06R
WAXAHACHIE     CLEAR     75  74  96 S6        30.06R
CLEBURNE       CLEAR     75  75 100 S8        30.06R
GRANBURY       CLEAR     76  71  83 SE5       30.05R
$$

TXZ083>090-098>101-113>116-127>130-139>142-154-155-251200-
WESTERN NORTH TEXAS

CITY           SKY/WX    TMP DP  RH WIND       PRES   REMARKS
WICHITA FALLS  CLEAR     73  70  90 S5        30.02R
WF-KICKAPOO    CLEAR     76  72  88 SE6       30.04R
VERNON         CLEAR     76  68  75 SE5       30.03R
ABILENE        CLEAR     73  69  87 S9        30.05R
ABILENE-DYESS  CLEAR     74  68  80 SE7       30.03R
GRAHAM         CLEAR     75  69  82 CALM      30.02R
BRECKENRIDGE   CLEAR     76  67  73 S6        30.03R
CISCO          MOCLDY    72  68  88 S8        30.06R
EASTLAND       CLEAR     72  69  89 S6        30.06R
RANGER         CLEAR     73  68  83 S9        30.05R
MINERAL WELLS  CLEAR     73  70  90 SE9       30.02R
STEPHENVILLE   CLEAR     72  68  86 S3        30.08R
COMANCHE       CLEAR     70  70 100 S3        30.07R
COLEMAN        CLEAR     73  67  83 S3        30.07R
$$

TXZ143>147-156>162-174-175-251200-
CENTRAL TEXAS

CITY           SKY/WX    TMP DP  RH WIND       PRES   REMARKS
WACO           PTCLDY    77  73  87 S12       30.04S
WACO-MCGREGOR  PTCLDY    75  73  93 S7        30.05R
HILLSBORO      CLEAR     76  73  88 S8        30.05R
CORSICANA      PTCLDY    76  74  93 S8        30.06R
MEXIA          PTCLDY    74  73  95 S8        30.06R
HEARNE         CLOUDY    76  76 100 SE5       30.07R
CAMERON        CLOUDY    76  74  95 CALM      30.06S
TEMPLE         PTCLDY    76  74  93 S9        30.06R
KILLEEN        CLEAR     75  72  91 S8        30.05R
KILLEEN-SKYLRK PTCLDY    76  73  91 S8        30.06R
FORT HOOD      CLEAR     74  72  93 S7        30.03R
HAMILTON       CLEAR     73  73 100 S7        30.07R
LAMPASAS         N/A     75  73  94 CALM      30.06R
$$

TXZ095>097-106>112-122>126-135>138-148>153-164>167-251200-
EAST TEXAS

CITY           SKY/WX    TMP DP  RH WIND       PRES   REMARKS
PARIS            N/A     74  73  97 SE5       30.07R
SULPHUR SPRNGS CLEAR     77  75  92 S6        30.08R
MOUNT PLEASANT CLEAR    N/A N/A N/A CALM      30.08R
GILMER         PTCLDY    75  74  97 CALM      30.07R
MINEOLA        CLEAR     75  73  94 SE5       30.07R
TYLER          CLEAR     77  75  93 S7        30.07R
LONGVIEW       CLOUDY    78  76  93 SW5       30.06R
MARSHALL         N/A     73  71  93 CALM      30.09R
ATHENS         CLEAR     72  72 100 CALM      30.06R
PALESTINE      CLEAR     75  73  96 CALM      30.07S
JACKSONVILLE   CLOUDY    75  74  98 S5        30.11R
HENDERSON      PTCLDY    74  73  97 CALM      30.09R FOG
CENTER         MOSUNNY   80  78  95 CALM      30.09R
NACOGDOCHES    CLOUDY    75  73  94 S3        30.06R
LUFKIN         CLOUDY    74  73  97 CALM      30.07R
$$

SUPPLEMENTAL OBSERVATIONS (NWS FORT WORTH AREA)

CITY           SKY/WX    TMP DP  RH WIND       PRES   REMARKS
DENISON DAM      N/A     75  70  83 E3          N/A
CADDO GRASSLND   N/A     75  72  88 S3          N/A
PAT MAYSE LAKE   N/A     75  73  94 E3          N/A
GREENVILLE       N/A     75  72  88 SE2         N/A
CEDAR HILL       N/A     77  72  83 S5          N/A
LBJ GRASSLAND    N/A     75  70  83 SE6         N/A
POSSUM KINGDOM   N/A     75  66  73 SE6         N/A
GRANBURY         N/A     75  70  83 SE6         N/A
COMANCHE         N/A     72  68  88 S6          N/A
MCGREGOR         N/A     75  70  83 S5          N/A
TEMPLE           N/A     75  72  88 S5          N/A
LAKE LIMESTONE   N/A     73  70  88 CALM        N/A
ATHENS           N/A     75  72  88 S5          N/A
$$

SUPPLEMENTAL OBSERVATIONS (NWS NORMAN AREA)

CITY           SKY/WX    TMP DP  RH WIND       PRES   REMARKS
GOODLETT         N/A     74  67  77 SE5       30.03R
ODELL            N/A     75  71  88 SE9       30.04R
CROWELL          N/A     74  70  86 S3        30.05R
KNOX CITY        N/A     76  66  70 SE5       30.04R
SEYMOUR          N/A     75  67  76 SE5       30.04R
MILLERS CREEK    N/A     75  68  78 SE6         N/A
$$

SUPPLEMENTAL OBSERVATIONS (NWS SAN ANGELO AREA)

CITY           SKY/WX    TMP DP  RH WIND       PRES   REMARKS
WEINERT          N/A     75  68  79 SE6       30.04S
HASKELL          N/A     76  65  68 SE6       30.04R
THROCKMORTON     N/A     71  69  91 SE3       30.05R
STAMFORD         N/A     75  68  79 SE7       30.05R
CLYDE            N/A     72  67  85 S9        30.08R
HAMBY            N/A     75  66  73 S8          N/A
IVIE RESERVOIR   N/A     73  68  83 E6          N/A
COLORADO BEND    N/A     73  70  88 S6          N/A
$$

SUPPLEMENTAL OBSERVATIONS (NWS SHREVEPORT AREA)

CITY           SKY/WX    TMP DP  RH WIND       PRES   REMARKS
CLARKSVILLE      N/A     73  70  88 S3          N/A
TEXARKANA        N/A     73  72  94 CALM        N/A
LINDEN           N/A     73  70  88 CALM        N/A
CADDO LAKE       N/A     72  70  94 CALM        N/A
GILMER           N/A     75  72  88 SW2         N/A
HENDERSON        N/A     75  73  94 S3          N/A
LUFKIN           N/A     75  73  94 MISG        N/A
N SABINE NF      N/A     75  73  94 MISG        N/A
S SABINE NF      N/A     75  72  88 SE1         N/A
$$

SUPPLEMENTAL OBSERVATIONS ARE A COLLECTION OF AUTOMATED INSTRUMENTS
THAT ARE MAINTAINED BY A VARIETY OF FEDERAL AND STATE AGENCIES.
CERTAIN ELEMENTS...SUCH AS HUMIDITY VALUES AND SUSTAINED WIND
SPEEDS...MAY BE APPROXIMATED.





USA.gov is the U.S. government's official web portal to all federal, state and local government web resources and services.